Tracking 28794 objects as of 19-Apr-2024
HD Live streaming from Space Station
objects crossing your sky now

STARLINK-4500

Track STARLINK-4500 now!
10-day predictions
STARLINK-4500 is classified as:


NORAD ID: 53413
Int'l Code: 2022-097AB
Perigee: 545.4 km
Apogee: 548.2 km
Inclination: 53.2 °
Period: 95.4 minutes
Semi major axis: 6917 km
RCS: Unknown
Launch date: August 10, 2022
Source: United States (US)
Launch site: AIR FORCE EASTERN TEST RANGE (AFETR)
Your satellite tracking list
Your tracking list is empty




NASA's NSSDC Master Catalog

Two Line Element Set (TLE):
1 53413U 22097AB  24110.80919822  .00007500  00000-0  48851-3 0  9994
2 53413  53.2179 326.6204 0002060 121.1714 238.9481 15.08862909 94166
Source of the keplerian elements: AFSPC